Tracking 31030 objects as of 15-Jul-2025
HD Live streaming from Space Station
objects crossing your sky now

STARLINK-32357

Track STARLINK-32357 now!
10-day predictions
STARLINK-32357 is classified as:


NORAD ID: 61009
Int'l Code: 2024-158V
Perigee: 473.1 km
Apogee: 476.7 km
Inclination: 53.2 °
Period: 94.0 minutes
Semi major axis: 6845 km
RCS: Unknown
Launch date: September 5, 2024
Source: United States (US)
Launch site: AIR FORCE EASTERN TEST RANGE (AFETR)
Your satellite tracking list
Your tracking list is empty




NASA's NSSDC Master Catalog

Two Line Element Set (TLE):
1 61009U 24158V   25196.00864126  .00023656  00000-0  74832-3 0  9995
2 61009  53.1580  49.7998 0002632  98.7778 261.3522 15.32683894 49772
Source of the keplerian elements: AFSPC